• In Österreich
  • Länderverzeichnis
  • Für 7 Tage
  • Wassertemperatur
  • Satellitenkarten
  • Wetterkarte
  • News
  • Widgets
  • user-avatar
    Anmelden

    Stündliche Wetter Kericho

    Heute, 16 Oktober, Dienstag

    Zeit Temperatur Niederschläge Wind Luftdruck Luftfeuchtigkeit
    00:00 +15°C° 0.4 mm 1 m/S 598 mmHg 91%
    01:00 +15°C° 0.4 mm 1 m/S 598 mmHg 92%
    02:00 +15°C° 0 mm 1 m/S 598 mmHg 92%
    03:00 +15°C° 0.3 mm 1 m/S 598 mmHg 92%
    04:00 +15°C° 0.3 mm 1 m/S 598 mmHg 92%
    05:00 +15°C° 0.3 mm 1 m/S 598 mmHg 92%
    06:00 +16°C° 0.1 mm 1 m/S 598 mmHg 88%
    07:00 +18°C° 0.1 mm 1 m/S 599 mmHg 84%
    08:00 +19°C° 0.1 mm 1 m/S 600 mmHg 80%
    09:00 +20°C° 0.4 mm 1 m/S 600 mmHg 74%
    10:00 +22°C° 0.4 mm 1 m/S 600 mmHg 67%
    11:00 +24°C° 0.4 mm 1 m/S 601 mmHg 60%
    12:00 +24°C° 1.2 mm 1 m/S 600 mmHg 62%
    13:00 +23°C° 1.2 mm 1 m/S 600 mmHg 64%
    14:00 +23°C° 1.2 mm 1 m/S 599 mmHg 65%
    15:00 +22°C° 1.1 mm 1 m/S 599 mmHg 70%
    16:00 +21°C° 1.1 mm 1 m/S 598 mmHg 75%
    17:00 +20°C° 1.1 mm 1 m/S 598 mmHg 80%
    18:00 +19°C° 1.5 mm 1 m/S 598 mmHg 84%
    19:00 +18°C° 1.5 mm 1 m/S 598 mmHg 87%
    20:00 +16°C° 1.5 mm 1 m/S 598 mmHg 90%
    21:00 +16°C° 1.6 mm 1 m/S 598 mmHg 91%
    22:00 +15°C° 1.6 mm 1 m/S 598 mmHg 92%
    23:00 +15°C° 1.6 mm 1 m/S 598 mmHg 93%

    Morgen, 17 Oktober, Mittwoch

    Zeit Temperatur Niederschläge Wind Luftdruck Luftfeuchtigkeit
    00:00 +15°C° 0.8 mm 1 m/S 598 mmHg 93%
    01:00 +15°C° 0.8 mm 1 m/S 597 mmHg 94%
    02:00 +14°C° 0.8 mm 1 m/S 597 mmHg 94%
    03:00 +14°C° 0.1 mm 1 m/S 597 mmHg 94%
    04:00 +14°C° 0.1 mm 1 m/S 597 mmHg 94%
    05:00 +14°C° 0.1 mm 1 m/S 597 mmHg 94%
    06:00 +16°C° 0 mm 1 m/S 598 mmHg 86%
    07:00 +19°C° 0 mm 1 m/S 599 mmHg 78%
    08:00 +21°C° 0 mm 1 m/S 600 mmHg 71%
    09:00 +23°C° 0.2 mm 1 m/S 601 mmHg 61%
    10:00 +25°C° 0.2 mm 1 m/S 601 mmHg 52%
    11:00 +28°C° 0.2 mm 1 m/S 602 mmHg 42%
    12:00 +26°C° 1 mm 1 m/S 600 mmHg 52%
    13:00 +24°C° 1 mm 1 m/S 599 mmHg 62%
    14:00 +22°C° 1 mm 1 m/S 597 mmHg 71%
    15:00 +20°C° 3.6 mm 1 m/S 596 mmHg 78%
    16:00 +19°C° 3.6 mm 1 m/S 596 mmHg 84%
    17:00 +18°C° 3.6 mm 1 m/S 595 mmHg 91%
    18:00 +16°C° 2.1 mm 1 m/S 596 mmHg 92%
    19:00 +16°C° 2.1 mm 1 m/S 597 mmHg 92%
    20:00 +16°C° 2.1 mm 1 m/S 598 mmHg 93%
    21:00 +15°C° 1.1 mm 1 m/S 598 mmHg 93%
    22:00 +15°C° 1.1 mm 1 m/S 598 mmHg 93%
    23:00 +15°C° 1.1 mm 1 m/S 598 mmHg 94%

    übermorgen, 18 Oktober, Donnerstag

    Zeit Temperatur Niederschläge Wind Luftdruck Luftfeuchtigkeit
    00:00 +15°C° 0.2 mm 1 m/S 597 mmHg 93%
    01:00 +15°C° 0.2 mm 1 m/S 597 mmHg 93%
    02:00 +14°C° 0.2 mm 1 m/S 596 mmHg 93%
    03:00 +14°C° 0 mm 1 m/S 596 mmHg 93%
    04:00 +14°C° 0 mm 1 m/S 596 mmHg 93%
    05:00 +14°C° 0 mm 1 m/S 596 mmHg 93%
    06:00 +16°C° 0 mm 2 m/S 597 mmHg 86%
    07:00 +17°C° 0 mm 2 m/S 598 mmHg 78%
    08:00 +19°C° 0 mm 2 m/S 599 mmHg 71%
    09:00 +23°C° 0.1 mm 2 m/S 600 mmHg 61%
    10:00 +25°C° 0.1 mm 2 m/S 600 mmHg 52%
    11:00 +27°C° 0.1 mm 1 m/S 601 mmHg 42%
    12:00 +25°C° 0.5 mm 1 m/S 599 mmHg 51%
    13:00 +24°C° 0.5 mm 1 m/S 598 mmHg 59%
    14:00 +22°C° 0.5 mm 1 m/S 596 mmHg 68%
    15:00 +21°C° 1.1 mm 1 m/S 596 mmHg 73%
    16:00 +20°C° 1.1 mm 1 m/S 595 mmHg 78%
    17:00 +19°C° 1.1 mm 1 m/S 595 mmHg 83%
    18:00 +18°C° 1.5 mm 1 m/S 596 mmHg 85%
    19:00 +18°C° 1.5 mm 1 m/S 596 mmHg 87%
    20:00 +16°C° 1.5 mm 1 m/S 597 mmHg 89%
    21:00 +16°C° 0.6 mm 1 m/S 597 mmHg 90%
    22:00 +16°C° 0.6 mm 1 m/S 597 mmHg 91%
    23:00 +15°C° 0.6 mm 2 m/S 597 mmHg 92%

    19 Oktober, Freitag

    Zeit Temperatur Niederschläge Wind Luftdruck Luftfeuchtigkeit
    00:00 +15°C° 0.3 mm 2 m/S 597 mmHg 92%
    01:00 +15°C° 0.3 mm 2 m/S 596 mmHg 92%
    02:00 +14°C° 0.3 mm 2 m/S 596 mmHg 93%
    03:00 +14°C° 0 mm 2 m/S 596 mmHg 93%
    04:00 +14°C° 0 mm 1 m/S 596 mmHg 93%
    05:00 +13°C° 0 mm 1 m/S 596 mmHg 93%
    06:00 +15°C° 0 mm 1 m/S 597 mmHg 84%
    07:00 +19°C° 0 mm 1 m/S 599 mmHg 75%
    08:00 +21°C° 0 mm 1 m/S 600 mmHg 66%
    09:00 +23°C° 0.1 mm 2 m/S 600 mmHg 58%
    10:00 +25°C° 0.1 mm 2 m/S 601 mmHg 50%
    11:00 +27°C° 0.1 mm 2 m/S 601 mmHg 43%
    12:00 +25°C° 1.2 mm 2 m/S 599 mmHg 53%
    13:00 +23°C° 1.2 mm 2 m/S 598 mmHg 64%
    14:00 +21°C° 1.2 mm 1 m/S 596 mmHg 75%
    15:00 +20°C° 1.9 mm 1 m/S 596 mmHg 79%
    16:00 +19°C° 1.9 mm 1 m/S 596 mmHg 82%
    17:00 +18°C° 1.9 mm 1 m/S 596 mmHg 86%
    18:00 +18°C° 1.3 mm 1 m/S 597 mmHg 88%
    19:00 +16°C° 1.3 mm 1 m/S 597 mmHg 89%
    20:00 +16°C° 1.3 mm 1 m/S 598 mmHg 91%
    21:00 +15°C° 0.3 mm 1 m/S 598 mmHg 91%
    22:00 +15°C° 0.3 mm 1 m/S 597 mmHg 92%
    23:00 +14°C° 0.3 mm 2 m/S 597 mmHg 93%

    20 Oktober, Samstag

    Zeit Temperatur Niederschläge Wind Luftdruck Luftfeuchtigkeit
    00:00 +14°C° 0 mm 2 m/S 597 mmHg 93%
    01:00 +13°C° 0 mm 2 m/S 596 mmHg 93%
    02:00 +13°C° 0 mm 2 m/S 596 mmHg 93%
    03:00 +13°C° 0 mm 2 m/S 596 mmHg 92%
    04:00 +12°C° 0 mm 2 m/S 596 mmHg 92%
    05:00 +12°C° 0 mm 2 m/S 596 mmHg 91%
    06:00 +14°C° 0 mm 2 m/S 598 mmHg 80%
    07:00 +17°C° 0 mm 2 m/S 599 mmHg 69%
    08:00 +19°C° 0 mm 2 m/S 600 mmHg 58%
    09:00 +21°C° 0 mm 2 m/S 601 mmHg 49%
    10:00 +25°C° 0 mm 2 m/S 601 mmHg 41%
    11:00 +27°C° 0 mm 2 m/S 601 mmHg 32%
    12:00 +27°C° 0 mm 2 m/S 601 mmHg 32%
    13:00 +27°C° 0 mm 2 m/S 600 mmHg 32%
    14:00 +27°C° 0 mm 2 m/S 599 mmHg 32%
    15:00 +25°C° 0 mm 2 m/S 599 mmHg 42%
    16:00 +23°C° 0 mm 1 m/S 598 mmHg 51%
    17:00 +21°C° 0 mm 1 m/S 597 mmHg 61%
    18:00 +19°C° 0 mm 1 m/S 597 mmHg 64%
    19:00 +18°C° 0 mm 1 m/S 598 mmHg 68%
    20:00 +16°C° 0 mm 1 m/S 598 mmHg 71%
    21:00 +15°C° 0 mm 1 m/S 597 mmHg 74%
    22:00 +15°C° 0 mm 1 m/S 597 mmHg 76%
    23:00 +14°C° 0 mm 1 m/S 597 mmHg 79%

    21 Oktober, Sonntag

    Zeit Temperatur Niederschläge Wind Luftdruck Luftfeuchtigkeit
    00:00 +13°C° 0 mm 1 m/S 596 mmHg 79%
    01:00 +13°C° 0 mm 2 m/S 596 mmHg 80%
    02:00 +13°C° 0 mm 2 m/S 596 mmHg 81%
    03:00 +12°C° 0 mm 2 m/S 596 mmHg 81%
    04:00 +12°C° 0 mm 2 m/S 596 mmHg 80%
    05:00 +12°C° 0 mm 2 m/S 596 mmHg 80%
    06:00 +15°C° 0 mm 2 m/S 598 mmHg 69%
    07:00 +18°C° 0 mm 2 m/S 599 mmHg 58%
    08:00 +21°C° 0 mm 2 m/S 600 mmHg 47%
    09:00 +24°C° 0 mm 2 m/S 601 mmHg 41%
    10:00 +26°C° 0 mm 2 m/S 601 mmHg 35%
    11:00 +28°C° 0 mm 2 m/S 601 mmHg 29%
    12:00 +27°C° 0 mm 2 m/S 600 mmHg 31%
    13:00 +27°C° 0 mm 2 m/S 599 mmHg 33%
    14:00 +26°C° 0 mm 2 m/S 599 mmHg 35%
    15:00 +24°C° 0 mm 2 m/S 598 mmHg 43%
    16:00 +22°C° 0 mm 1 m/S 598 mmHg 52%
    17:00 +20°C° 0 mm 1 m/S 597 mmHg 60%
    18:00 +20°C° 0.1 mm 1 m/S 597 mmHg 64%
    19:00 +19°C° 0.1 mm 1 m/S 598 mmHg 67%
    20:00 +18°C° 0.1 mm 1 m/S 598 mmHg 71%
    21:00 +16°C° 0.1 mm 1 m/S 598 mmHg 74%
    22:00 +16°C° 0.1 mm 2 m/S 598 mmHg 78%
    23:00 +15°C° 0.1 mm 2 m/S 597 mmHg 81%
    Mehr zeigen